FW7685 Weather Reports


time (UTC)temp
C
wind
direction
speed
KPH
gust
KPH
rain 1hr
cm
rain 24hr
cm
rain mn
cm
humidity
%
barometer
mb
20260506050325 8 269 3.2 6.4 0.00 0.00 0.00 58 1011.6
20260506044821 8 341 1.6 11.3 0.00 0.00 0.00 58 1011.5
20260506044322 8 45 3.2 11.3 0.00 0.00 0.00 58 1011.5
20260506043822 8 24 3.2 8.0 0.00 0.00 0.00 58 1011.5
20260506043324 8 28 3.2 8.0 0.00 0.00 0.00 58 1011.5
20260506042822 8 337 3.2 8.0 0.00 0.00 0.00 58 1011.4
20260506042323 8 324 1.6 4.8 0.00 0.00 0.00 58 1011.5
20260506041823 8 1 1.6 4.8 0.00 0.00 0.00 58 1011.5
20260506041724 8 306 3.2 4.8 0.00 0.00 0.00 59 1011.4
20260506040822 8 38 1.6 8.0 0.00 0.00 0.00 59 1011.4
20260506040322 8 8 1.6 8.0 0.00 0.00 0.00 59 1011.5
20260506035820 8 51 1.6 4.8 0.00 0.00 0.00 58 1011.5
20260506035322 8 341 1.6 4.8 0.00 0.00 0.00 58 1011.4
20260506034820 8 56 1.6 4.8 0.00 0.00 0.00 58 1011.4
20260506034717 8 314 3.2 4.8 0.00 0.00 0.00 58 1011.4
20260506033821 9 45 1.6 4.8 0.00 0.00 0.00 58 1011.4
20260506033322 9 45 1.6 6.4 0.00 0.00 0.00 58 1011.4
20260506032821 9 314 1.6 6.4 0.00 0.00 0.00 58 1011.4
20260506032321 9 296 1.6 6.4 0.00 0.00 0.00 58 1011.3
20260506031818 9 321 3.2 6.4 0.00 0.00 0.00 58 1011.4
20260506031716 9 344 3.2 6.4 0.00 0.00 0.00 58 1011.4
20260506030821 9 314 1.6 4.8 0.00 0.00 0.00 58 1011.4
20260506030320 9 321 1.6 4.8 0.00 0.00 0.00 58 1011.4
20260506025819 9 20 1.6 6.4 0.00 0.00 0.00 58 1011.4
20260506025321 9 20 1.6 9.7 0.00 0.00 0.00 58 1011.5
20260506024819 9 1 1.6 9.7 0.00 0.00 0.00 58 1011.4
20260506024322 10 142 1.6 3.2 0.00 0.00 0.00 59 1011.5
20260506023819 10 303 1.6 4.8 0.00 0.00 0.00 59 1011.4
20260506023322 10 28 1.6 8.0 0.00 0.00 0.00 59 1011.4
20260506022819 10 303 3.2 8.0 0.00 0.00 0.00 58 1011.4
20260506022320 10 178 1.6 6.4 0.00 0.00 0.00 59 1011.4
20260506021819 10 45 3.2 8.0 0.00 0.00 0.00 59 1011.4
20260506021320 10 324 1.6 8.0 0.00 0.00 0.00 59 1011.4
20260506020820 10 16 3.2 8.0 0.00 0.00 0.00 58 1011.5
20260506020319 10 35 1.6 4.8 0.00 0.00 0.00 58 1011.6
20260506015816 10 37 1.6 6.4 0.00 0.00 0.00 58 1011.5
20260506015318 10 23 1.6 6.4 0.00 0.00 0.00 58 1011.6
20260506014817 10 324 1.6 4.8 0.00 0.00 0.00 58 1011.5
20260506014318 10 32 1.6 6.4 0.00 0.00 0.00 57 1011.5
20260506013818 10 20 1.6 6.4 0.00 0.00 0.00 57 1011.6
20260506013319 10 348 3.2 8.0 0.00 0.00 0.00 57 1011.5
20260506012817 10 35 3.2 8.0 0.00 0.00 0.00 57 1011.5
20260506012319 10 32 3.2 4.8 0.00 0.00 0.00 56 1011.6
20260506011818 10 45 3.2 6.4 0.00 0.00 0.00 56 1011.6
20260506011319 10 306 3.2 6.4 0.00 0.00 0.00 56 1011.6
20260506010817 10 1 3.2 6.4 0.00 0.00 0.00 55 1011.7
20260506010317 10 1 3.2 6.4 0.00 0.00 0.00 55 1011.7
20260506005817 10 23 3.2 6.4 0.00 0.00 0.00 55 1011.8
20260506005645 10 38 3.2 6.4 0.00 0.00 0.00 55 1011.7
20260506004816 10 63 1.6 8.0 0.00 0.00 0.00 55 1011.7
20260506004323 10 348 3.2 8.0 0.00 0.00 0.00 55 1011.8
20260506003816 10 324 3.2 9.7 0.00 0.00 0.00 54 1011.8
20260506003318 10 38 3.2 9.7 0.00 0.00 0.00 54 1011.8
20260506002816 10 45 1.6 6.4 0.00 0.00 0.00 55 1011.8
20260506002318 11 45 3.2 6.4 0.00 0.00 0.00 55 1011.8
20260506001816 11 45 3.2 11.3 0.00 0.00 0.00 55 1011.8
20260506001317 11 309 3.2 11.3 0.00 0.00 0.00 55 1011.7
20260506000816 11 31 1.6 6.4 0.00 0.00 0.00 56 1011.8
20260506000317 11 45 3.2 6.4 0.00 0.00 0.00 56 1011.8
20260505235815 11 45 1.6 6.4 0.00 0.00 0.00 56 1011.7
20260505235317 11 28 3.2 8.0 0.00 0.00 0.00 55 1011.8
20260505234815 11 309 3.2 8.0 0.00 0.00 0.00 56 1011.8
20260505234315 11 324 1.6 6.4 0.00 0.00 0.00 56 1011.8
20260505234206 11 63 3.2 6.4 0.00 0.00 0.00 56 1011.7
20260505233714 11 45 1.6 9.7 0.00 0.00 0.00 56 1011.7
20260505232813 11 331 3.2 9.7 0.00 0.00 0.00 56 1011.6
20260505232315 11 38 3.2 9.7 0.00 0.00 0.00 56 1011.7
20260505231813 11 45 3.2 9.7 0.00 0.00 0.00 55 1011.6
20260505231311 11 56 3.2 11.3 0.00 0.00 0.00 55 1011.6
20260505230810 11 65 3.2 11.3 0.00 0.00 0.00 55 1011.6
20260505230312 11 76 4.8 9.7 0.00 0.00 0.00 55 1011.6
20260505225808 11 37 1.6 8.0 0.00 0.00 0.00 55 1011.7
20260505225309 12 45 3.2 11.3 0.00 0.00 0.00 55 1011.6
20260505224806 12 28 3.2 11.3 0.00 0.00 0.00 55 1011.7
20260505224307 12 66 3.2 9.7 0.00 0.00 0.00 55 1011.6
20260505224209 12 45 3.2 9.7 0.00 0.00 0.00 54 1011.6
20260505223310 12 25 4.8 8.0 0.00 0.00 0.00 54 1011.6
20260505222804 12 38 4.8 8.0 0.00 0.00 0.00 53 1011.6
20260505222306 12 68 3.2 6.4 0.00 0.00 0.00 53 1011.6
20260505221804 12 100 3.2 4.8 0.00 0.00 0.00 53 1011.4
20260505221304 12 1 1.6 4.8 0.00 0.00 0.00 53 1011.5
20260505220801 12 45 1.6 4.8 0.00 0.00 0.00 53 1011.4
20260505220306 12 331 1.6 4.8 0.00 0.00 0.00 53 1011.4
20260505215801 12 314 1.6 6.4 0.00 0.00 0.00 53 1011.4
20260505215706 12 45 1.6 6.4 0.00 0.00 0.00 52 1011.4
20260505215154 12 51 3.2 8.0 0.00 0.00 0.00 52 1011.5
20260505214259 12 210 3.2 8.0 0.00 0.00 0.00 52 1011.4
20260505213758 12 1 3.2 8.0 0.00 0.00 0.00 52 1011.4
20260505213658 12 296 3.2 8.0 0.00 0.00 0.00 52 1011.4
20260505212758 12 305 3.2 9.7 0.00 0.00 0.00 52 1011.3
20260505212701 12 152 4.8 9.7 0.00 0.00 0.00 52 1011.3
20260505212156 12 35 3.2 8.0 0.00 0.00 0.00 52 1011.4
20260505211700 12 10 1.6 8.0 0.00 0.00 0.00 52 1011.3
20260505210801 12 306 3.2 8.0 0.00 0.00 0.00 52 1011.2
20260505210259 12 16 3.2 8.0 0.00 0.00 0.00 52 1011.3
20260505205757 12 1 3.2 6.4 0.00 0.00 0.00 51 1011.2
20260505205258 13 52 3.2 8.0 0.00 0.00 0.00 52 1011.3
20260505205204 13 309 3.2 9.7 0.00 0.00 0.00 52 1011.2
20260505204257 13 269 3.2 9.7 0.00 0.00 0.00 52 1011.2
20260505204157 13 13 3.2 11.3 0.00 0.00 0.00 52 1011.1
20260505203257 13 39 4.8 11.3 0.00 0.00 0.00 52 1011.1
20260505202757 13 54 3.2 9.7 0.00 0.00 0.00 52 1011.0
20260505202259 13 35 1.6 9.7 0.00 0.00 0.00 51 1011.1
20260505201755 13 63 3.2 4.8 0.00 0.00 0.00 51 1011.0
20260505201258 13 300 1.6 6.4 0.00 0.00 0.00 51 1011.0
20260505200756 13 178 3.2 11.3 0.00 0.00 0.00 51 1011.1
20260505200259 13 49 3.2 11.3 0.00 0.00 0.00 50 1011.0
20260505195758 13 72 1.6 4.8 0.00 0.00 0.00 51 1010.9
20260505195258 13 89 0.0 4.8 0.00 0.00 0.00 50 1010.8
20260505194756 13 45 0.0 3.2 0.00 0.00 0.00 50 1010.8
20260505194258 13 45 0.0 4.8 0.00 0.00 0.00 50 1010.8
20260505194152 13 303 1.6 6.4 0.00 0.00 0.00 50 1010.7
20260505193705 13 223 3.2 6.4 0.00 0.00 0.00 50 1010.6
20260505192756 13 324 3.2 6.4 0.00 0.00 0.00 50 1010.6
20260505192257 13 296 3.2 6.4 0.00 0.00 0.00 50 1010.6
20260505191756 13 314 1.6 6.4 0.00 0.00 0.00 50 1010.6
20260505191317 13 314 1.6 6.4 0.00 0.00 0.00 50 1010.5
20260505190755 13 269 3.2 6.4 0.00 0.00 0.00 50 1010.5
20260505190659 13 331 1.6 6.4 0.00 0.00 0.00 49 1010.5
20260505185756 13 269 1.6 6.4 0.00 0.00 0.00 49 1010.4
20260505185257 13 331 1.6 8.0 0.00 0.00 0.00 49 1010.4
20260505184754 13 306 3.2 8.0 0.00 0.00 0.00 49 1010.4
20260505184256 13 296 3.2 8.0 0.00 0.00 0.00 49 1010.4
20260505183755 14 302 3.2 8.0 0.00 0.00 0.00 49 1010.4
20260505183256 14 327 1.6 6.4 0.00 0.00 0.00 49 1010.4
20260505183147 14 45 3.2 6.4 0.00 0.00 0.00 49 1010.4
20260505182255 14 1 1.6 8.0 0.00 0.00 0.00 49 1010.3
20260505181754 14 320 3.2 8.0 0.00 0.00 0.00 49 1010.3
20260505181257 14 45 1.6 8.0 0.00 0.00 0.00 49 1010.3
20260505180755 14 54 1.6 4.8 0.00 0.00 0.00 50 1010.4
20260505180255 14 209 3.2 4.8 0.00 0.00 0.00 50 1010.4
20260505175754 14 314 1.6 3.2 0.00 0.00 0.00 50 1010.4
20260505175255 13 331 0.0 4.8 0.00 0.00 0.00 51 1010.3
20260505174754 13 45 1.6 4.8 0.00 0.00 0.00 51 1010.4
20260505174254 13 178 1.6 4.8 0.00 0.00 0.00 51 1010.3
20260505173753 13 269 1.6 3.2 0.00 0.00 0.00 51 1010.4
20260505173254 14 1 0.0 3.2 0.00 0.00 0.00 51 1010.4
20260505172754 13 296 1.6 8.0 0.00 0.00 0.00 50 1010.4
20260505172254 14 331 3.2 8.0 0.00 0.00 0.00 50 1010.4
20260505172152 14 314 1.6 8.0 0.00 0.00 0.00 50 1010.4
20260505171253 14 28 1.6 8.0 0.00 0.00 0.00 50 1010.5
20260505171155 14 314 1.6 9.7 0.00 0.00 0.00 50 1010.5
20260505170308 14 269 3.2 9.7 0.00 0.00 0.00 50 1010.5
20260505165751 14 303 3.2 8.0 0.00 0.00 0.00 50 1010.6
20260505165255 14 324 1.6 6.4 0.00 0.00 0.00 49 1010.5
20260505164750 14 314 3.2 6.4 0.00 0.00 0.00 49 1010.5
20260505164253 14 334 3.2 6.4 0.00 0.00 0.00 49 1010.5
20260505164148 14 331 3.2 9.7 0.00 0.00 0.00 49 1010.5
20260505163656 15 197 3.2 9.7 0.00 0.00 0.00 48 1010.5
20260505162753 15 1 1.6 6.4 0.00 0.00 0.00 48 1010.6
20260505162657 15 314 3.2 6.4 0.00 0.00 0.00 48 1010.5
20260505161755 14 1 3.2 4.8 0.00 0.00 0.00 48 1010.5
20260505161255 14 223 3.2 6.4 0.00 0.00 0.00 48 1010.5
20260505160753 14 341 1.6 6.4 0.00 0.00 0.00 48 1010.6
20260505160253 14 28 3.2 4.8 0.00 0.00 0.00 48 1010.6
20260505153255 14 310 1.6 6.4 0.00 0.00 0.00 48 1010.6
20260505152752 14 314 1.6 6.4 0.00 0.00 0.00 48 1010.6
20260505152254 14 290 1.6 8.0 0.00 0.00 0.00 48 1010.6
20260505151752 14 347 1.6 8.0 0.00 0.00 0.00 48 1010.7
20260505151255 14 321 1.6 6.4 0.00 0.00 0.00 48 1010.8
20260505150752 14 316 3.2 6.4 0.00 0.00 0.00 48 1010.7
20260505150252 14 35 1.6 6.4 0.00 0.00 0.00 48 1010.7
20260505140152 14 314 1.6 8.0 0.00 0.00 0.00 49 1010.9
20260505124748 15 23 3.2 11.3 0.00 0.00 0.00 48 1011.2
20260505124423 15 69 3.2 8.0 0.00 0.00 0.00 49 1011.2
20260505123249 14 178 3.2 6.4 0.00 0.00 0.00 50 1011.3
20260505122748 14 35 1.6 4.8 0.00 0.00 0.00 50 1011.3
20260505122249 13 39 1.6 6.4 0.00 0.00 0.00 51 1011.3
20260505122152 13 317 3.2 6.4 0.00 0.00 0.00 51 1011.3
20260505121423 13 45 1.6 8.0 0.00 0.00 0.00 50 1011.3
20260505120250 14 72 3.2 8.0 0.00 0.00 0.00 51 1011.3
20260505115746 13 269 1.6 6.4 0.00 0.00 0.00 52 1011.3
20260505115247 13 314 1.6 8.0 0.00 0.00 0.00 52 1011.3
20260505114747 13 109 3.2 8.0 0.00 0.00 0.00 51 1011.3
20260505114247 13 286 1.6 6.4 0.00 0.00 0.00 51 1011.4
20260505114139 13 223 3.2 6.4 0.00 0.00 0.00 51 1011.4
20260505113247 13 314 3.2 6.4 0.00 0.00 0.00 51 1011.4
20260505112747 13 234 3.2 6.4 0.00 0.00 0.00 52 1011.5
20260505112248 13 16 1.6 6.4 0.00 0.00 0.00 52 1011.5
20260505111746 12 89 1.6 6.4 0.00 0.00 0.00 52 1011.6
20260505111249 12 45 1.6 6.4 0.00 0.00 0.00 52 1011.6
20260505110747 12 45 1.6 6.4 0.00 0.00 0.00 52 1011.6
20260505110248 12 1 1.6 8.0 0.00 0.00 0.00 52 1011.7
20260505102141 12 269 3.2 6.4 0.00 0.00 0.00 53 1011.8
20260505101418 12 45 3.2 6.4 0.00 0.00 0.00 53 1011.9
20260505100248 12 117 1.6 9.7 0.00 0.00 0.00 54 1011.9
20260505095920 12 312 3.2 9.7 0.00 0.00 0.00 55 1012.0
20260505094746 11 1 3.2 9.7 0.00 0.00 0.00 54 1012.0
20260505094249 11 54 3.2 9.7 0.00 0.00 0.00 54 1012.0
20260505093745 11 319 1.6 9.7 0.00 0.00 0.00 54 1012.0
20260505093246 11 45 3.2 8.0 0.00 0.00 0.00 54 1012.0
20260505092745 12 319 3.2 9.7 0.00 0.00 0.00 53 1012.0
20260505092247 12 303 3.2 9.7 0.00 0.00 0.00 53 1012.0
20260505091743 12 281 1.6 9.7 0.00 0.00 0.00 54 1012.0
20260505091651 12 307 3.2 9.7 0.00 0.00 0.00 53 1012.0
20260505090744 12 337 3.2 8.0 0.00 0.00 0.00 54 1012.0
20260505090244 12 8 3.2 6.4 0.00 0.00 0.00 54 1012.0
20260505090139 12 56 1.6 6.4 0.00 0.00 0.00 54 1012.0
20260505085245 12 327 1.6 8.0 0.00 0.00 0.00 54 1012.1
20260505084745 12 298 3.2 8.0 0.00 0.00 0.00 54 1012.1
20260505084242 12 1 3.2 8.0 0.00 0.00 0.00 54 1012.1
20260505083742 12 38 1.6 4.8 0.00 0.00 0.00 55 1012.2
20260505083636 11 28 1.6 6.4 0.00 0.00 0.00 55 1012.2
20260505083136 11 321 3.2 8.0 0.00 0.00 0.00 55 1012.3
20260505082241 11 20 3.2 8.0 0.00 0.00 0.00 55 1012.2
20260505081740 11 45 3.2 8.0 0.00 0.00 0.00 55 1012.1
20260505081242 11 314 3.2 8.0 0.00 0.00 0.00 54 1012.1
20260505080739 11 45 3.2 6.4 0.00 0.00 0.00 55 1012.1
20260505080239 11 314 1.6 8.0 0.00 0.00 0.00 55 1012.1
20260505075739 11 45 3.2 8.0 0.00 0.00 0.00 54 1012.1
20260505075241 11 45 3.2 8.0 0.00 0.00 0.00 54 1012.1
20260505074741 11 62 1.6 6.4 0.00 0.00 0.00 55 1012.1
20260505074239 11 1 1.6 6.4 0.00 0.00 0.00 55 1012.1
20260505073740 11 1 1.6 6.4 0.00 0.00 0.00 55 1012.1
20260505073238 11 269 3.2 4.8 0.00 0.00 0.00 56 1012.1
20260505072743 11 38 1.6 8.0 0.00 0.00 0.00 56 1012.1
20260505072636 11 341 3.2 8.0 0.00 0.00 0.00 55 1012.1
20260505071740 11 230 3.2 6.4 0.00 0.00 0.00 55 1012.1
20260505071240 11 269 3.2 6.4 0.00 0.00 0.00 55 1012.2
20260505070925 11 1 1.6 6.4 0.00 0.00 0.00 55 1012.2
20260505070834 11 62 3.2 6.4 0.00 0.00 0.00 55 1012.1
20260505065241 11 20 3.2 6.4 0.00 0.00 0.00 56 1012.1
20260505064740 11 321 3.2 6.4 0.00 0.00 0.00 56 1012.2
20260505064238 11 314 3.2 6.4 0.00 0.00 0.00 57 1012.2
20260505063739 11 321 1.6 6.4 0.00 0.00 0.00 57 1012.3
20260505063241 11 320 3.2 6.4 0.00 0.00 0.00 57 1012.2
20260505062740 11 314 1.6 4.8 0.00 0.00 0.00 58 1012.2
20260505062239 11 1 1.6 8.0 0.00 0.00 0.00 58 1012.2
20260505061740 11 306 1.6 8.0 0.00 0.00 0.00 59 1012.1
20260505061240 11 353 1.6 4.8 0.00 0.00 0.00 60 1012.1
20260505060741 11 135 0.0 4.8 0.00 0.00 0.00 60 1012.2
20260505060240 11 324 1.6 4.8 0.00 0.00 0.00 61 1012.1
20260505055738 11 1 1.6 4.8 0.00 0.00 0.00 61 1012.1
20260505055238 11 216 1.6 4.8 0.00 0.00 0.00 61 1012.1
20260505054740 11 310 3.2 4.8 0.00 0.00 0.00 61 1012.1
20260505054238 11 300 1.6 4.8 0.00 0.00 0.00 61 1012.1
20260505054119 10 89 1.6 4.8 0.00 0.00 0.00 61 1012.1
20260505053239 10 306 1.6 4.8 0.00 0.00 0.00 61 1012.2
20260505052741 10 296 1.6 4.8 0.00 0.00 0.00 61 1012.2
20260505052238 10 223 3.2 6.4 0.00 0.00 0.00 61 1012.2